Regional Weather Roundup
Issued by NWS

Home | Current Version | Previous Version | Text Only | Print | Product List | Glossary On
Versions: 1 2 3 4 5 6 7 8 9 10 11 12 13 14 15 16 17 18 19 20 21 22 23 24 25 26 27 28 29 30 31 32 33 34 35 36 37 38 39 40 41 42 43 44 45 46 47 48 49 50
000
ASUS45 KABQ 202210
RWRNM
NEW MEXICO REGIONAL WEATHER ROUNDUP
NATIONAL WEATHER SERVICE ALBUQUERQUE NM
400 PM MDT FRI APR 20 2018

NOTE: "FAIR" MEANS FEW OR NO CLOUDS BELOW 12,000 FEET AGL WITH NO
       SIGNIFICANT WEATHER OR OBSTRUCTIONS TO VISION.

      THIS PRODUCT IS RELEASED AS TWO VERSIONS.  ONE VERSION NEAR
      THE TOP OF THE HOUR CONTAINING PRELIMINARY DATA FROM ALBUQUERQUE
      AND OTHER STATIONS.  A FINAL VERSION WITH ADDITIONAL DATA IS
      ISSUED ABOUT 10 MINUTES AFTER THE HOUR.

NMZ501-503-504-510>518-202300-
NORTHWEST PLATEAU/NORTHCENTRAL MOUNTAINS

CITY           SKY/WX    TMP DP  RH WIND       PRES   REMARKS
FARMINGTON     PTSUNNY   54  11  18 NW6       29.91S
LOS ALAMOS     FAIR      52   4  14 SW16G22   29.93F
SANTA FE       FAIR      57   2  11 W8        29.90S
TAOS           FAIR      51   9  18 W13G22    29.94F
ANGEL FIRE     FAIR      41  22  46 W13G20    29.93F

$$
NMZ402-403-502-505>509-202300-
WESTCENTRAL MOUNTAINS/SOUTHWEST MOUNTAINS

CITY           SKY/WX    TMP DP  RH WIND       PRES   REMARKS
GALLUP         CLOUDY    48  24  39 W16G22    29.99F
GRANTS         PTSUNNY   52  17  25 W21G37    29.99R
SILVER CITY    FAIR      62   9  12 NW28G35   29.99F

$$
NMZ407-409-411-412-202300-
SOUTHERN DESERTS

CITY           SKY/WX    TMP DP  RH WIND       PRES   REMARKS
DEMING         FAIR      69   6   8 W28G41    29.94F
LAS CRUCES     FAIR      71   5   7 W31G38    29.93F
HOLLOMAN AFB   SUNNY     72  -3   5 W22G31    29.90F
ALAMOGORDO     FAIR      72   1   6 W22G35    29.90F
T OR C         FAIR      70  -3   5 SW22G33   29.88F

$$
NMZ519>523-202300-
CENTRAL VALLEYS/CENTRAL HIGHLANDS

CITY           SKY/WX    TMP DP  RH WIND       PRES   REMARKS
ALBUQUERQUE    FAIR      61   7  11 SW15G24   29.90F
DOUBLE EAGLE     N/A     61   7  11 W17G25    29.92S
MORIARTY ARPT  FAIR      60   1   9 SW25G31   29.91F
CLINES CORNERS FAIR      56   1  10 W24G41    29.93S
BELEN          FAIR      63   4  10 W16G23    29.90S
SOCORRO        FAIR      68   0   6 W17G23    29.87S

$$
NMZ524>526-539-540-202300-
SOUTHCENTRAL MOUNTAINS

CITY           SKY/WX    TMP DP  RH WIND       PRES   REMARKS
RUIDOSO        FAIR      57  -2   9 SW28G43   29.93F

$$
NMZ527>531-202300-
NORTHEAST HIGHLANDS/NORTHEAST PLAINS

CITY           SKY/WX    TMP DP  RH WIND       PRES   REMARKS
LAS VEGAS      FAIR      50  25  37 W14       29.87F
RATON          CLOUDY    34  33  96 NW9       29.95R WCI  27
CLAYTON        RAIN      40  39  97 W9        29.99R FOG     WCI  34

$$
NMZ532>537-202300-
EASTCENTRAL PLAINS

CITY           SKY/WX    TMP DP  RH WIND       PRES   REMARKS
SANTA ROSA     FAIR      68  15  13 W26G45    29.79R
TUCUMCARI      TSTM      52  48  86 E16       29.77F
CANNON AFB     TSTM      62  51  66 SE35G46   29.72F
CLOVIS AIRPORT CLOUDY    66  43  43 SE38G47   29.74F HAZE

$$
NMZ028-029-538-202300-
SOUTHEAST PLAINS

CITY           SKY/WX    TMP DP  RH WIND       PRES   REMARKS
ROSWELL        FAIR      83   9   6 W36G45    29.72R
ARTESIA        FAIR      82  14   7 SW32G47   29.75S
CARLSBAD       FAIR      86  24  10 W29G38    29.72F
HOBBS          SUNNY     75  48  38 SE32G44   29.75F


$$




USA.gov is the U.S. government's official web portal to all federal, state and local government web resources and services.